Location: Courçay
(47.2523°N, 0.8761°E)
Time: 20:08:30
(UTC+00:00)

BlueWalker 3 - Pass Details

Date: 18 November 2025
Orbit: 455 x 462 km, 53.2° (Epoch: 09 December)

Event Time Altitude Azimuth Distance (km) Brightness Sun altitude
Rises 18:11:27 0° 203° (SSW) 2,474 5.9 -19.1°
Reaches altitude 10° 18:13:52 10° 189° (S) 1,605 4.7 -19.5°
Enters shadow 18:15:40 20° 162° (SSE) 1,135 3.6 -19.8°
